Date String (YYYY-MM-DD hh:mm:ss) UTC,Instrument flags,Ambient pressure (hPa),Sample flow (lpm),Bypass flow (lpm),Sample temperature (°C),Ambient temperature (°C),ASC tube jacket temperature (°C),LED temperature (°C),Box temperature (°C),Sample RH (%),Span deviation,Mass concentration (μg/m³),Mass concentration (μg/m³),Mass concentration (μg/m³)
DateTimeUTC,F1_M11,P_M11,Q1_M11,Q2_M11,T1_M11,T2_M11,T3_M11,T4_M11,T5_M11,U1_M11,ZSPAN_M11,X0_M11,X2_M11,X1_M11
2022-01-13 09:00:00,,0831.9,5.01,0.00,25.6,24.9,00.0,34.6,27.4,09.8,0000.0,0000.11,0000.01,0000.00
2022-01-13 09:01:00,,0831.9,5.00,0.00,25.6,24.9,00.0,34.6,27.4,09.6,0000.0,0000.11,0000.01,0000.00
2022-01-13 09:02:00,,0832.0,4.98,0.00,25.7,24.9,00.0,34.6,27.4,09.6,0000.0,0000.11,0000.01,0000.00
2022-01-13 09:03:00,,0832.0,5.01,0.00,25.7,24.9,00.0,34.6,27.5,09.6,0000.0,0000.11,0000.02,0000.00
2022-01-13 09:04:00,,0832.0,5.00,0.00,25.7,24.9,00.0,34.6,27.5,09.6,0000.0,0000.11,0000.02,0000.00
2022-01-13 09:05:00,,0831.8,5.00,0.00,25.7,24.9,00.0,34.6,27.5,09.5,0000.0,0000.03,0000.01,0000.00
2022-01-13 09:06:00,,0831.8,5.00,0.00,25.7,25.0,00.0,34.6,27.5,09.5,0000.0,0000.78,0000.00,0000.00
2022-01-13 09:07:00,,0831.8,5.00,0.00,25.7,25.0,00.0,34.7,27.5,09.5,0000.0,0001.18,0000.00,0000.00
2022-01-13 09:08:00,,0831.9,5.00,0.00,25.7,25.0,00.0,34.7,27.5,09.5,0000.0,0001.74,0000.01,0000.00
2022-01-13 09:09:00,,0831.9,4.99,0.00,25.7,25.0,00.0,34.7,27.5,09.5,0000.0,0001.77,0000.02,0000.01
2022-01-13 09:10:00,,0831.9,5.01,0.00,25.7,25.0,00.0,34.7,27.5,09.6,0000.0,0001.77,0000.02,0000.01
2022-01-13 09:11:00,,0831.9,5.00,0.00,25.7,25.0,00.0,34.7,27.5,09.7,0000.0,0001.77,0000.02,0000.01
2022-01-13 09:12:00,,0831.8,4.99,0.00,25.8,25.0,00.0,34.7,27.5,09.8,0000.0,0001.77,0000.02,0000.01
2022-01-13 09:13:00,,0831.8,4.99,0.00,25.8,25.0,00.0,34.7,27.5,09.8,0000.0,0001.77,0000.02,0000.00
2022-01-13 09:14:00,,0831.9,5.01,0.00,25.8,25.0,00.0,34.7,27.5,09.7,0000.0,0002.55,0000.02,0000.00
2022-01-13 09:15:00,,0831.9,5.00,0.00,25.7,25.0,00.0,34.7,27.5,09.7,0000.0,0003.42,0000.02,0000.00
2022-01-13 09:16:00,,0831.9,5.00,0.00,25.7,24.9,00.0,34.7,27.5,09.8,0000.0,0003.43,0000.02,0000.01
2022-01-13 09:17:00,,0832.0,5.00,0.00,25.7,24.9,00.0,34.7,27.5,09.8,0000.0,0002.64,0000.02,0000.01
2022-01-13 09:18:00,,0832.0,5.01,0.00,25.7,24.9,00.0,34.7,27.5,10.0,0000.0,0002.31,0000.04,0000.01
2022-01-13 09:19:00,,0832.0,5.00,0.00,25.7,24.9,00.0,34.7,27.5,09.9,0000.0,0001.78,0000.04,0000.01
2022-01-13 09:20:00,,0832.0,4.99,0.00,25.7,24.9,00.0,34.7,27.5,09.8,0000.0,0001.82,0000.05,0000.00
2022-01-13 09:21:00,,0832.0,5.01,0.00,25.7,24.9,00.0,34.7,27.5,09.7,0000.0,0003.04,0000.06,0000.01
2022-01-13 09:22:00,,0832.0,5.00,0.00,25.7,24.9,00.0,34.7,27.5,09.7,0000.0,0003.49,0000.06,0000.00
2022-01-13 09:23:00,,0831.9,4.99,0.00,25.7,24.9,00.0,34.7,27.5,09.8,0000.0,0003.49,0000.06,0000.00
2022-01-13 09:24:00,,0832.0,5.01,0.00,25.7,24.9,00.0,34.7,27.4,09.7,0000.0,0003.50,0000.06,0000.01
2022-01-13 09:25:00,,0832.0,5.00,0.00,25.7,24.9,00.0,34.7,27.5,09.7,0000.0,0002.89,0000.06,0000.01
2022-01-13 09:26:00,,0832.0,5.01,0.00,25.7,24.9,00.0,34.7,27.5,09.8,0000.0,0001.84,0000.06,0000.01
2022-01-13 09:27:00,,0832.0,5.00,0.00,25.7,24.9,00.0,34.7,27.4,10.0,0000.0,0001.83,0000.06,0000.00
2022-01-13 09:28:00,,0832.0,5.00,0.00,25.7,24.9,00.0,34.7,27.4,10.1,0000.0,0001.83,0000.06,0000.00
2022-01-13 09:29:00,,0831.9,5.00,0.00,25.7,24.9,00.0,34.7,27.4,09.7,0000.0,0001.79,0000.04,0000.00
2022-01-13 09:30:00,,0831.8,5.00,0.00,25.7,24.9,00.0,34.7,27.5,09.7,0000.0,0002.46,0000.04,0000.00
2022-01-13 09:31:00,,0831.8,5.00,0.00,25.7,24.9,00.0,34.7,27.5,09.6,0000.0,0003.06,0000.02,0000.00
2022-01-13 09:32:00,,0831.8,5.01,0.00,25.7,24.9,00.0,34.7,27.5,09.6,0000.0,0002.67,0000.03,0000.00
2022-01-13 09:33:00,,0831.7,5.01,0.00,25.7,24.9,00.0,34.7,27.5,09.6,0000.0,0002.08,0000.02,0000.00
2022-01-13 09:34:00,,0831.7,4.99,0.00,25.7,24.9,00.0,34.7,27.5,09.7,0000.0,0002.08,0000.02,0000.00
2022-01-13 09:35:00,,0831.7,5.00,0.00,25.7,24.9,00.0,34.7,27.5,09.7,0000.0,0002.11,0000.04,0000.00
2022-01-13 09:36:00,,0831.7,5.00,0.00,25.7,25.0,00.0,34.7,27.5,09.8,0000.0,0002.22,0000.05,0000.00
2022-01-13 09:37:00,,0831.7,5.00,0.00,25.7,25.0,00.0,34.7,27.5,09.8,0000.0,0002.22,0000.05,0000.00
2022-01-13 09:38:00,,0831.7,4.99,0.00,25.8,25.0,00.0,34.7,27.5,09.9,0000.0,0002.22,0000.05,0000.00
2022-01-13 09:39:00,,0831.6,5.01,0.00,25.8,24.9,00.0,34.7,27.5,10.0,0000.0,0002.22,0000.05,0000.00
2022-01-13 09:40:00,,0831.7,5.00,0.00,25.7,24.9,00.0,34.7,27.5,09.7,0000.0,0002.18,0000.05,0000.00
2022-01-13 09:41:00,,0831.7,4.99,0.00,25.8,24.9,00.0,34.7,27.5,09.5,0000.0,0001.49,0000.04,0000.00
2022-01-13 09:42:00,,0831.7,5.02,0.00,25.7,24.9,00.0,34.7,27.5,09.5,0000.0,0000.69,0000.04,0000.00
2022-01-13 09:43:00,,0831.7,5.00,0.00,25.7,25.0,00.0,34.7,27.5,09.7,0000.0,0000.14,0000.03,0000.00
2022-01-13 09:44:00,,0831.7,4.99,0.00,25.8,25.0,00.0,34.7,27.5,09.8,0000.0,0000.14,0000.03,0000.00
2022-01-13 09:45:00,,0831.7,5.00,0.00,25.8,25.0,00.0,34.7,27.5,09.7,0000.0,0000.16,0000.03,0000.00
2022-01-13 09:46:00,,0831.6,4.99,0.00,25.8,25.0,00.0,34.7,27.5,09.4,0000.0,0000.19,0000.03,0000.00
2022-01-13 09:47:00,,0831.7,5.00,0.00,25.8,25.0,00.0,34.7,27.5,09.5,0000.0,0000.65,0000.02,0000.00
2022-01-13 09:48:00,,0831.7,5.01,0.00,25.8,25.0,00.0,34.7,27.5,09.6,0000.0,0001.35,0000.02,0000.00
2022-01-13 09:49:00,,0831.7,5.00,0.00,25.8,25.0,00.0,34.7,27.6,09.6,0000.0,0001.35,0000.02,0000.00
2022-01-13 09:50:00,,0831.7,4.99,0.00,25.8,25.0,00.0,34.8,27.5,09.5,0000.0,0001.35,0000.02,0000.00
2022-01-13 09:51:00,,0831.7,4.99,0.00,25.8,25.0,00.0,34.8,27.6,09.4,0000.0,0001.35,0000.02,0000.00
2022-01-13 09:52:00,,0831.6,5.01,0.00,25.8,25.0,00.0,34.8,27.6,09.7,0000.0,0001.35,0000.02,0000.00
2022-01-13 09:53:00,,0831.6,4.99,0.00,25.8,25.0,00.0,34.8,27.6,09.8,0000.0,0001.35,0000.02,0000.00
2022-01-13 09:54:00,,0831.6,5.00,0.00,25.8,25.0,00.0,34.8,27.6,09.7,0000.0,0001.35,0000.02,0000.00
2022-01-13 09:55:00,,0831.6,4.99,0.00,25.8,25.0,00.0,34.8,27.6,09.5,0000.0,0001.35,0000.02,0000.00
2022-01-13 09:56:00,,0831.6,5.00,0.00,25.8,25.0,00.0,34.8,27.6,09.4,0000.0,0001.36,0000.02,0000.00
2022-01-13 09:57:00,,0831.6,4.99,0.00,25.8,25.0,00.0,34.8,27.6,09.4,0000.0,0001.29,0000.02,0000.00
2022-01-13 09:58:00,,0831.5,5.01,0.00,25.8,25.0,00.0,34.8,27.6,09.5,0000.0,0000.62,0000.02,0000.00
2022-01-13 09:59:00,,0831.6,4.98,0.00,25.8,25.0,00.0,34.8,27.6,09.5,0000.0,0000.03,0000.02,0000.00
